Regional Weather Roundup
Issued by NWS Upton, NY

Current Version | Previous Version | Graphics & Text | Print | Product List | Glossary Off
Versions: 1 2 3 4 5 6 7 8 9 10 11 12 13 14 15 16 17 18 19 20 21 22 23 24 25 26 27

000
ASUS41 KOKX 290808
RWROKX

REGIONAL WEATHER ROUNDUP
NATIONAL WEATHER SERVICE NEW YORK NY
400 AM EDT WED MAR 29 2017

NOTE: "FAIR" INDICATES FEW OR NO CLOUDS BELOW 12,000 FEET WITH NO
SIGNIFICANT WEATHER AND/OR OBSTRUCTIONS TO VISIBILITY.

NYZ071-072-176-178-NJZ106-104-290900-
NEW YORK CITY METRO AREA

CITY           SKY/WX    TMP DP  RH WIND       PRES   REMARKS
Central Park   CLOUDY    46  43  89 VRB7      29.99R
Wall St Helipt CLOUDY    46  43  87 NE9       29.98R
LaGuardia APRT CLOUDY    48  42  80 N10       29.96R
Kennedy INTL   CLOUDY    47  44  90 N13       29.96S
Breezy Point     N/A     46 N/A N/A N9          N/A
Newark/Liberty CLOUDY    46  44  93 N10       29.97R
Teterboro      CLOUDY    47  43  86 N10       29.96R
$$

NYZ177-179-078>081-290900-
LONG ISLAND NEW YORK

CITY           SKY/WX    TMP DP  RH WIND       PRES   REMARKS
Jones Beach      N/A     43 N/A N/A NW9         N/A
Matinecock PT    N/A     43 N/A N/A CALM        N/A
Farmingdale    CLOUDY    44  42  93 N6        29.95R
MacArthur/ISP  CLOUDY    42  42 100 N8        29.94R
Shirley        CLOUDY    42  41  96 N7        29.94R
Westhampton    CLOUDY    42  39  89 N8        29.95R
East Hampton   CLOUDY    39  37  93 N10       29.92R WCI  32
Montauk          N/A     41  39  93 NW10      29.92R
$$

NYZ052-065-067-290900-
HUDSON VALLEY

CITY           SKY/WX    TMP DP  RH WIND       PRES   REMARKS
White Plains   MOCLDY    45  40  82 N14       29.95R
Newburgh       NOT AVBL
Montgomery     CLOUDY    43  39  86 NE10      30.00R
Poughkeepsie   CLOUDY    41  36  82 N12G23    30.00R
Albany         CLOUDY    40  37  89 N7        30.05R
$$

NJZ001-105-106-008-010-013-015-019>022-104-290900-
NEW JERSEY

CITY           SKY/WX    TMP DP  RH WIND       PRES   REMARKS
Newark/Liberty CLOUDY    46  44  93 N10       29.97R
Teterboro      CLOUDY    47  43  86 N10       29.96R
Caldwell       CLOUDY    45  44  97 NE7       29.98R
Somerville     CLOUDY    49  43  80 N8        29.96R
Linden         CLOUDY    46  44  94 CALM      29.97R
Sussex         CLOUDY    45  40  82 MISG      30.01R
Andover          N/A     44  38  79 N10G25    30.00R
Trenton        MOCLDY    45  44  97 N5        29.96R
Millville      MOCLDY    45  45 100 NW6       29.96R
Atlantic City  MOCLDY    44  41  89 N7        29.96R
Wrightstown    CLOUDY    44  42  96 CALM      29.94S
Toms River     CLOUDY    44  44 100 NW3       29.97R
Belmar         CLOUDY    44  43  96 NW5       29.96R FOG
$$

PAZ047>061-062-071-290900-
EASTERN PENNSYLVANIA

CITY           SKY/WX    TMP DP  RH WIND       PRES   REMARKS
Philadelphia   PTCLDY    50  45  83 NW7       29.98R
Allentown      CLOUDY    47  39  74 NW15      30.02R
Scranton       CLOUDY    41  36  82 N9G24     30.07R
$$

CTZ002-004>006-009-010-012-RIZ004-006-007-MAZ004-011-015-290900-
SOUTHERN NEW ENGLAND
 IN CT

CITY           SKY/WX    TMP DP  RH WIND       PRES   REMARKS
Bradley INTL   CLOUDY    40  39  97 N6        29.96R
Hartford       CLOUDY    41  39  93 N6        29.96R FOG
Danbury        CLOUDY    43  40  89 NW8       29.98R
Wtrbury/Oxford CLOUDY    41  37  87 N5        29.95R
Bridgeport     CLOUDY    45  41  86 NW3       29.95R
Meriden        CLOUDY    42  39  89 NW6       29.95R
New Haven      CLOUDY    42  39  89 N6        29.94R
Chester        NOT AVBL
Groton         CLOUDY    41  37  86 N7        29.91R
Wilimantic     CLOUDY    41  38  89 N7        29.94R

 IN RI

CITY           SKY/WX    TMP DP  RH WIND       PRES   REMARKS
Providence     CLOUDY    39  36  89 N14       29.92S WCI  31
Block Island   LGT RAIN  39  38  96 N12G17    29.90R WCI  32
Westerly       CLOUDY    41  39  93 N9        29.91R
 IN MA

CITY           SKY/WX    TMP DP  RH WIND       PRES   REMARKS
Boston         CLOUDY    38  37  97 N10       29.95R WCI  31
Worcester      CLOUDY    34  33  96 N6        29.91S FOG     WCI  29
Westfield      CLOUDY    40  40 100 N6        29.96R
Provincetown   LGT RAIN  39  38  96 NE12      29.90F WCI  32
Nantucket      CLOUDY    41  39  93 N17G25    29.83F
$$

ANZ330-335-338-340-345-350-353-355-290900-
COASTAL MARINE OBSERVATIONS


STATION/POSITION TIME  SKY/WX   TEMP    WIND        PRES    VSBY  WAVE
                                AIR SEA DIR/SP/G                  HT/PER
                 (UTC)          (F)     (DEG/KT/KT) (MB)    (MI)  (FT/S)
NY HARB ENTRANCE 0750            43 42  310/  6/  6 1014.4          3/ 5
20 S FIRE ISLAND 0750            42 41  340/ 12/ 14 1013.3          4/ 9
GREAT SOUTH BAY  NOT AVBL
23 SSW MONTAUK P 0650            40 42              1012.3          4/10
15 E BARNEGAT LI 0730               44                N/A           4/11
HUDSON CANYON    0750            43 44  360/ 17/ 21 1011.8          4/ 9
KINGS POINT      0748            43 39              1014.3
EXECUTION ROCKS  NOT AVBL
CENTRAL LI SOUND 0730            40     320/  6/  8   N/A           0
EASTERN LI SOUND NOT AVBL
ROBBINS REEF     0748            46     340/  5/  7 1014.9
$$


>>>>>>>>>>>>>>>>>>>>>>>>>>>> KEY <<<<<<<<<<<<<<<<<<<<<<<<<<<
>                                                          <
>     SKY/WX - Sky Condition/Present Weather               <
>     TMP    - Temperature in Fahrenheit                   <
>     DP     - Dew Point in Fahrenheit                     <
>     RH     - Relative Humidity in Percent                <
>     WIND   - Direction (from) and Speed in MPH           <
>     PRES   - Mean Sea Level Pressure (inches of Hg)      <
>     WCI    - Wind Chill Index                            <
>     VSB    - VISIBILITY IN MILES                         <
>     HX     - HEAT INDEX                                  <
>     TC     - TEMPERATURE IN CELSIUS                      <
>     VRB    - VARIABLE WIND DIRECTION                     <
>                                                          <
>>>>>>>>>>>>>>>>>>>>>>>>>>>> KEY <<<<<<<<<<<<<<<<<<<<<<<<<<<




USA.gov is the U.S. government's official web portal to all federal, state and local government web resources and services.